Home   Weather   Kuopio   Past weeks

Flag for Finland Past Weather in Kuopio, Finland — Yesterday and Last 2 Weeks

Now
34 °F

Low clouds.


Feels Like: 22 °F
Forecast: 23 / 29 °F
Wind: 20 mph from Southwest

Location: Kuopio Airport

Current Time: Jan 19, 2017 at 2:08:27 am

Latest Report: Jan 19, 2017 at 1:20 am


Visibility: N/A

Pressure: 29.77 "Hg

Humidity: 93%

Dew Point: 32 °F

Location of KuopioLocation

Past Weather in Kuopio — Graph

°F

Kuopio Temperature Yesterday

Maximum temperature yesterday: 34 °F (at 10:20 pm)
Minimum temperature yesterday: 27 °F (at 9:20 am)
Average temperature yesterday: 30 °F

High & Low Weather Summary for the Past Weeks

 TemperatureHumidityPressure
High36 °F (Jan 10, 11:50 am)100% (Jan 8, 5:20 am)30.60 "Hg (Jan 8, 5:20 am)
Low-18 °F (Jan 6, 8:50 am)74% (Jan 11, 8:20 pm)29.12 "Hg (Jan 13, 7:50 am)
Average19 °F88%29.83 "Hg
* Reported Jan 4 12:20 am — Jan 19 12:50 am, Kuopio, Weather by CustomWeather, © 2017

Note: Actual official high and low records may vary slightly from our data, if they occured in-between our weather recording intervals... More about our weather records

Advertising

Kuopio Weather History for the Previous 24 Hours

Scroll right to see more
 ConditionsComfort  
Time TempWeatherWind HumidityBarometerVisibility
12:50 am
Thu, Jan 19
34 °FLow clouds.17 mph93%29.77 "HgN/A
12:20 am34 °FLow clouds.17 mph93%29.80 "HgN/A
11:50 pm
Wed, Jan 18
34 °FLow clouds.17 mph93%29.80 "HgN/A
11:20 pm34 °FLow clouds.16 mph93%29.83 "HgN/A
10:50 pm34 °FLow clouds.16 mph93%29.83 "HgN/A
10:20 pm34 °FLow clouds.17 mph93%29.86 "HgN/A
9:50 pm32 °FSprinkles. Mostly cloudy.13 mph93%29.89 "HgN/A
9:20 pm32 °FPassing clouds.13 mph93%29.89 "HgN/A
8:50 pm32 °FClear.13 mph93%29.89 "Hg10 mi
8:20 pm32 °FSprinkles. Low clouds.10 mph93%29.92 "HgN/A
7:50 pm32 °FSprinkles. Partly cloudy.12 mph93%29.95 "HgN/A
7:20 pm32 °FLight freezing rain. Mostly cloudy.9 mph93%29.95 "HgN/A
6:50 pm32 °FSleet. Low clouds.8 mph93%29.98 "Hg4 mi
6:20 pm32 °FLight snow. Mostly cloudy.9 mph93%30.01 "HgN/A
5:50 pm30 °FLight snow. Low clouds.13 mph100%30.01 "Hg5 mi
5:20 pm30 °FLight snow. Low clouds.10 mph100%30.04 "Hg4 mi
4:50 pm30 °FLight snow. Low clouds.8 mph100%30.04 "Hg4 mi
4:20 pm30 °FLight snow. Low clouds.8 mph100%30.07 "Hg5 mi
3:50 pm30 °FLight snow. Low clouds.10 mph100%30.07 "Hg5 mi
3:20 pm30 °FLight snow. Low clouds.10 mph93%30.09 "Hg4 mi
2:50 pm30 °FLow clouds.10 mph93%30.09 "HgN/A
2:20 pm30 °FLow clouds.9 mph93%30.09 "HgN/A
1:50 pm30 °FLow clouds.6 mph93%30.12 "HgN/A
1:20 pm30 °FLow clouds.7 mph93%30.12 "HgN/A
12:50 pm30 °FLow clouds.12 mph93%30.15 "HgN/A
12:20 pm30 °FLow clouds.13 mph93%30.15 "HgN/A
11:50 am30 °FLow clouds.13 mph93%30.15 "HgN/A
11:20 am30 °FLow clouds.12 mph93%30.15 "HgN/A
10:50 am30 °FPartly sunny.10 mph93%30.15 "HgN/A
10:20 am28 °FPartly sunny.7 mph100%30.15 "HgN/A
9:50 am28 °FPartly sunny.8 mph93%30.15 "HgN/A
9:20 am27 °FPassing clouds.6 mph100%30.15 "HgN/A
8:50 am28 °FPassing clouds.6 mph93%30.15 "HgN/A
8:20 am28 °FPassing clouds.6 mph93%30.15 "HgN/A
7:50 am28 °FPassing clouds.9 mph93%30.15 "HgN/A
7:20 am30 °FPassing clouds.10 mph93%30.12 "HgN/A
6:50 am30 °FPassing clouds.12 mph100%30.12 "HgN/A
6:20 am30 °FLight snow. Passing clouds.13 mph100%30.12 "HgN/A
5:50 am32 °FLight snow. Low clouds.12 mph93%30.12 "Hg2 mi
5:20 am32 °FLow clouds.10 mph93%30.12 "HgN/A
4:50 am32 °FLow clouds.9 mph93%30.12 "HgN/A
4:20 am30 °FLow clouds.7 mph93%30.12 "HgN/A
3:50 am30 °FLow clouds.8 mph93%30.12 "HgN/A
3:20 am30 °FLow clouds.8 mph93%30.12 "HgN/A
2:50 am30 °FLow clouds.9 mph93%30.12 "HgN/A
2:20 am28 °FSnow flurries. Low clouds.8 mph100%30.12 "HgN/A
Weather by CustomWeather, © 2017

See weather overviewHow to use our weather pages